Year,Month,Day,Hour,Minute,Value (Times are PST for temperature in C)
2015,08,20,00,00,18.20
2015,08,20,00,01,18.20
2015,08,20,00,02,18.20
2015,08,20,00,03,18.20
2015,08,20,00,04,18.20
2015,08,20,00,05,18.10
2015,08,20,00,06,18.10
2015,08,20,00,07,18.10
2015,08,20,00,08,18.10
2015,08,20,00,09,18.10
2015,08,20,00,10,18.10
2015,08,20,00,11,18.10
2015,08,20,00,12,18.00
2015,08,20,00,13,18.00
2015,08,20,00,14,18.00
2015,08,20,00,15,18.00
2015,08,20,00,16,17.90
2015,08,20,00,17,17.90
2015,08,20,00,18,17.90
2015,08,20,00,19,17.90
2015,08,20,00,20,17.90
2015,08,20,00,21,17.90
2015,08,20,00,22,17.90
2015,08,20,00,23,17.90
2015,08,20,00,24,17.90
2015,08,20,00,25,17.90
2015,08,20,00,26,17.90
2015,08,20,00,27,17.90
2015,08,20,00,28,17.90
2015,08,20,00,29,17.90
2015,08,20,00,30,17.90
2015,08,20,00,31,17.90
2015,08,20,00,32,17.90
2015,08,20,00,33,17.90
2015,08,20,00,34,17.90
2015,08,20,00,35,17.90
2015,08,20,00,36,17.90
2015,08,20,00,37,17.90
2015,08,20,00,38,17.90
2015,08,20,00,39,17.90
2015,08,20,00,40,17.90
2015,08,20,00,41,17.90
2015,08,20,00,42,17.90
2015,08,20,00,43,17.90
2015,08,20,00,44,17.90
2015,08,20,00,45,17.90
2015,08,20,00,46,17.80
2015,08,20,00,47,17.80
2015,08,20,00,48,17.80
2015,08,20,00,49,17.80
2015,08,20,00,50,17.80
2015,08,20,00,51,17.80
2015,08,20,00,52,17.70
2015,08,20,00,53,17.70
2015,08,20,00,54,17.70
2015,08,20,00,55,17.70
2015,08,20,00,56,17.70
2015,08,20,00,57,17.60
2015,08,20,00,58,17.60
2015,08,20,00,59,17.60
2015,08,20,01,00,17.60
2015,08,20,01,01,17.60
2015,08,20,01,02,17.60
2015,08,20,01,03,17.60
2015,08,20,01,04,17.60
2015,08,20,01,05,17.60
2015,08,20,01,06,17.60
2015,08,20,01,07,17.50
2015,08,20,01,08,17.50
2015,08,20,01,09,17.50
2015,08,20,01,10,17.50
2015,08,20,01,11,17.50
2015,08,20,01,12,17.40
2015,08,20,01,13,17.40
2015,08,20,01,14,17.40
2015,08,20,01,15,17.40
2015,08,20,01,16,17.40
2015,08,20,01,17,17.40
2015,08,20,01,18,17.30
2015,08,20,01,19,17.30
2015,08,20,01,20,17.30
2015,08,20,01,21,17.30
2015,08,20,01,22,17.30
2015,08,20,01,23,17.30
2015,08,20,01,24,17.20
2015,08,20,01,25,17.20
2015,08,20,01,26,17.20
2015,08,20,01,27,17.20
2015,08,20,01,28,17.20
2015,08,20,01,29,17.20
2015,08,20,01,30,17.10
2015,08,20,01,31,17.10
2015,08,20,01,32,17.10
2015,08,20,01,33,17.10
2015,08,20,01,34,17.10
2015,08,20,01,35,17.10
2015,08,20,01,36,17.00
2015,08,20,01,37,17.00
2015,08,20,01,38,17.00
2015,08,20,01,39,16.90
2015,08,20,01,40,16.90
2015,08,20,01,41,16.90
2015,08,20,01,42,16.90
2015,08,20,01,43,16.90
2015,08,20,01,44,16.90
2015,08,20,01,45,16.80
2015,08,20,01,46,16.80
2015,08,20,01,47,16.80
2015,08,20,01,48,16.80
2015,08,20,01,49,16.80
2015,08,20,01,50,16.80
2015,08,20,01,51,16.80
2015,08,20,01,52,16.80
2015,08,20,01,53,16.80
2015,08,20,01,54,16.70
2015,08,20,01,55,16.70
2015,08,20,01,56,16.70
2015,08,20,01,57,16.70
2015,08,20,01,58,16.70
2015,08,20,01,59,16.70
2015,08,20,02,00,16.70
2015,08,20,02,01,16.70
2015,08,20,02,02,16.70
2015,08,20,02,03,16.60
2015,08,20,02,04,16.60
2015,08,20,02,05,16.60
2015,08,20,02,06,16.60
2015,08,20,02,07,16.60
2015,08,20,02,08,16.60
2015,08,20,02,09,16.50
2015,08,20,02,10,16.50
2015,08,20,02,11,16.50
2015,08,20,02,12,16.50
2015,08,20,02,13,16.40
2015,08,20,02,14,16.40
2015,08,20,02,15,16.40
2015,08,20,02,16,16.40
2015,08,20,02,17,16.40
2015,08,20,02,18,16.40
2015,08,20,02,19,16.40
2015,08,20,02,20,16.30
2015,08,20,02,21,16.30
2015,08,20,02,22,16.30
2015,08,20,02,23,16.30
2015,08,20,02,24,16.30
2015,08,20,02,25,16.30
2015,08,20,02,26,16.30
2015,08,20,02,27,16.30
2015,08,20,02,28,16.30
2015,08,20,02,29,16.30
2015,08,20,02,30,16.20
2015,08,20,02,31,16.20
2015,08,20,02,32,16.20
2015,08,20,02,33,16.20
2015,08,20,02,34,16.20
2015,08,20,02,35,16.20
2015,08,20,02,36,16.20
2015,08,20,02,37,16.20
2015,08,20,02,38,16.20
2015,08,20,02,39,16.20
2015,08,20,02,40,16.10
2015,08,20,02,41,16.10
2015,08,20,02,42,16.10
2015,08,20,02,43,16.10
2015,08,20,02,44,16.10
2015,08,20,02,45,16.10
2015,08,20,02,46,16.10
2015,08,20,02,47,16.10
2015,08,20,02,48,16.10
2015,08,20,02,49,16.10
2015,08,20,02,50,16.00
2015,08,20,02,51,16.10
2015,08,20,02,52,16.00
2015,08,20,02,53,16.00
2015,08,20,02,54,16.00
2015,08,20,02,55,16.00
2015,08,20,02,56,16.00
2015,08,20,02,57,16.00
2015,08,20,02,58,15.90
2015,08,20,02,59,15.90
2015,08,20,03,00,15.90
2015,08,20,03,01,15.90
2015,08,20,03,02,15.90
2015,08,20,03,03,15.90
2015,08,20,03,04,15.90
2015,08,20,03,05,15.90
2015,08,20,03,06,15.90
2015,08,20,03,07,15.90
2015,08,20,03,08,15.80
2015,08,20,03,09,15.80
2015,08,20,03,10,15.80
2015,08,20,03,11,15.80
2015,08,20,03,12,15.80
2015,08,20,03,13,15.80
2015,08,20,03,14,15.80
2015,08,20,03,15,15.80
2015,08,20,03,16,15.80
2015,08,20,03,17,15.70
2015,08,20,03,18,15.70
2015,08,20,03,19,15.70
2015,08,20,03,20,15.70
2015,08,20,03,21,15.70
2015,08,20,03,22,15.70
2015,08,20,03,23,15.70
2015,08,20,03,24,15.70
2015,08,20,03,25,15.70
2015,08,20,03,26,15.70
2015,08,20,03,27,15.70
2015,08,20,03,28,15.70
2015,08,20,03,29,15.60
2015,08,20,03,30,15.60
2015,08,20,03,31,15.60
2015,08,20,03,32,15.60
2015,08,20,03,33,15.60
2015,08,20,03,34,15.60
2015,08,20,03,35,15.60
2015,08,20,03,36,15.60
2015,08,20,03,37,15.60
2015,08,20,03,38,15.60
2015,08,20,03,39,15.60
2015,08,20,03,40,15.60
2015,08,20,03,41,15.60
2015,08,20,03,42,15.60
2015,08,20,03,43,15.60
2015,08,20,03,44,15.60
2015,08,20,03,45,15.60
2015,08,20,03,46,15.60
2015,08,20,03,47,15.60
2015,08,20,03,48,15.60
2015,08,20,03,49,15.60
2015,08,20,03,50,15.60
2015,08,20,03,51,15.50
2015,08,20,03,52,15.50
2015,08,20,03,53,15.50
2015,08,20,03,54,15.50
2015,08,20,03,55,15.50
2015,08,20,03,56,15.50
2015,08,20,03,57,15.50
2015,08,20,03,58,15.50
2015,08,20,03,59,15.50
2015,08,20,04,00,15.50
2015,08,20,04,01,15.50
2015,08,20,04,02,15.50
2015,08,20,04,03,15.40
2015,08,20,04,04,15.40
2015,08,20,04,05,15.40
2015,08,20,04,06,15.40
2015,08,20,04,07,15.50
2015,08,20,04,08,15.40
2015,08,20,04,09,15.40
2015,08,20,04,10,15.40
2015,08,20,04,11,15.40
2015,08,20,04,12,15.40
2015,08,20,04,13,15.40
2015,08,20,04,14,15.40
2015,08,20,04,15,15.40
2015,08,20,04,16,15.40
2015,08,20,04,17,15.40
2015,08,20,04,18,15.40
2015,08,20,04,19,15.40
2015,08,20,04,20,15.30
2015,08,20,04,21,15.30
2015,08,20,04,22,15.30
2015,08,20,04,23,15.30
2015,08,20,04,24,15.30
2015,08,20,04,25,15.30
2015,08,20,04,26,15.30
2015,08,20,04,27,15.30
2015,08,20,04,28,15.20
2015,08,20,04,29,15.20
2015,08,20,04,30,15.20
2015,08,20,04,31,15.20
2015,08,20,04,32,15.20
2015,08,20,04,33,15.10
2015,08,20,04,34,15.10
2015,08,20,04,35,15.10
2015,08,20,04,36,15.10
2015,08,20,04,37,15.10
2015,08,20,04,38,15.10
2015,08,20,04,39,15.10
2015,08,20,04,40,15.00
2015,08,20,04,41,15.00
2015,08,20,04,42,15.00
2015,08,20,04,43,14.90
2015,08,20,04,44,14.90
2015,08,20,04,45,14.90
2015,08,20,04,46,14.90
2015,08,20,04,47,14.80
2015,08,20,04,48,14.80
2015,08,20,04,49,14.80
2015,08,20,04,50,14.80
2015,08,20,04,51,14.80
2015,08,20,04,52,14.80
2015,08,20,04,53,14.80
2015,08,20,04,54,14.70
2015,08,20,04,55,14.70
2015,08,20,04,56,14.70
2015,08,20,04,57,14.70
2015,08,20,04,58,14.70
2015,08,20,04,59,14.70
2015,08,20,05,00,14.70
2015,08,20,05,01,14.70
2015,08,20,05,02,14.70
2015,08,20,05,03,14.70
2015,08,20,05,04,14.70
2015,08,20,05,05,14.70
2015,08,20,05,06,14.70
2015,08,20,05,07,14.70
2015,08,20,05,08,14.70
2015,08,20,05,09,14.70
2015,08,20,05,10,14.70
2015,08,20,05,11,14.70
2015,08,20,05,12,14.70
2015,08,20,05,13,14.70
2015,08,20,05,14,14.70
2015,08,20,05,15,14.70
2015,08,20,05,16,14.70
2015,08,20,05,17,14.80
2015,08,20,05,18,14.80
2015,08,20,05,19,14.80
2015,08,20,05,20,14.80
2015,08,20,05,21,14.80
2015,08,20,05,22,14.80
2015,08,20,05,23,14.80
2015,08,20,05,24,14.80
2015,08,20,05,25,14.80
2015,08,20,05,26,14.80
2015,08,20,05,27,14.80
2015,08,20,05,28,14.80
2015,08,20,05,29,14.80
2015,08,20,05,30,14.80
2015,08,20,05,31,14.80
2015,08,20,05,32,14.80
2015,08,20,05,33,14.80
2015,08,20,05,34,14.80
2015,08,20,05,35,14.80
2015,08,20,05,36,14.80
2015,08,20,05,37,14.80
2015,08,20,05,38,14.80
2015,08,20,05,39,14.80
2015,08,20,05,40,14.80
2015,08,20,05,41,14.80
2015,08,20,05,42,14.80
2015,08,20,05,43,14.80
2015,08,20,05,44,14.80
2015,08,20,05,45,14.80
2015,08,20,05,46,14.80
2015,08,20,05,47,14.80
2015,08,20,05,48,14.80
2015,08,20,05,49,14.80
2015,08,20,05,50,14.80
2015,08,20,05,51,14.80
2015,08,20,05,52,14.80
2015,08,20,05,53,14.70
2015,08,20,05,54,14.70
2015,08,20,05,55,14.70
2015,08,20,05,56,14.70
2015,08,20,05,57,14.70
2015,08,20,05,58,14.70
2015,08,20,05,59,14.70
2015,08,20,06,00,14.70
2015,08,20,06,01,14.70
2015,08,20,06,02,14.70
2015,08,20,06,03,14.70
2015,08,20,06,04,14.60
2015,08,20,06,05,14.60
2015,08,20,06,06,14.60
2015,08,20,06,07,14.60
2015,08,20,06,08,14.60
2015,08,20,06,09,14.60
2015,08,20,06,10,14.60
2015,08,20,06,11,14.60
2015,08,20,06,12,14.50
2015,08,20,06,13,14.50
2015,08,20,06,14,14.50
2015,08,20,06,15,14.50
2015,08,20,06,16,14.50
2015,08,20,06,17,14.50
2015,08,20,06,18,14.50
2015,08,20,06,19,14.50
2015,08,20,06,20,14.50
2015,08,20,06,21,14.50
2015,08,20,06,22,14.40
2015,08,20,06,23,14.40
2015,08,20,06,24,14.40
2015,08,20,06,25,14.40
2015,08,20,06,26,14.40
2015,08,20,06,27,14.40
2015,08,20,06,28,14.40
2015,08,20,06,29,14.40
2015,08,20,06,30,14.40
2015,08,20,06,31,14.40
2015,08,20,06,32,14.40
2015,08,20,06,33,14.40
2015,08,20,06,34,14.30
2015,08,20,06,35,14.30
2015,08,20,06,36,14.30
2015,08,20,06,37,14.30
2015,08,20,06,38,14.30
2015,08,20,06,39,14.30
2015,08,20,06,40,14.30
2015,08,20,06,41,14.20
2015,08,20,06,42,14.20
2015,08,20,06,43,14.20
2015,08,20,06,44,14.20
2015,08,20,06,45,14.20
2015,08,20,06,46,14.20
2015,08,20,06,47,14.10
2015,08,20,06,48,14.10
2015,08,20,06,49,14.10
2015,08,20,06,50,14.10
2015,08,20,06,51,14.10
2015,08,20,06,52,14.10
2015,08,20,06,53,14.10
2015,08,20,06,54,14.10
2015,08,20,06,55,14.10
2015,08,20,06,56,14.10
2015,08,20,06,57,14.10
2015,08,20,06,58,14.10
2015,08,20,06,59,14.10
2015,08,20,07,00,14.10
2015,08,20,07,01,14.10
2015,08,20,07,02,14.10
2015,08,20,07,03,14.20
2015,08,20,07,04,14.20
2015,08,20,07,05,14.20
2015,08,20,07,06,14.20
2015,08,20,07,07,14.20
2015,08,20,07,08,14.20
2015,08,20,07,09,14.30
2015,08,20,07,10,14.30
2015,08,20,07,11,14.30
2015,08,20,07,12,14.40
2015,08,20,07,13,14.40
2015,08,20,07,14,14.40
2015,08,20,07,15,14.50
2015,08,20,07,16,14.50
2015,08,20,07,17,14.60
2015,08,20,07,18,14.60
2015,08,20,07,19,14.70
2015,08,20,07,20,14.70
2015,08,20,07,21,14.80
2015,08,20,07,22,14.80
2015,08,20,07,23,14.90
2015,08,20,07,24,14.90
2015,08,20,07,25,15.00
2015,08,20,07,26,15.00
2015,08,20,07,27,15.10
2015,08,20,07,28,15.10
2015,08,20,07,29,15.20
2015,08,20,07,30,15.20
2015,08,20,07,31,15.30
2015,08,20,07,32,15.30
2015,08,20,07,33,15.40
2015,08,20,07,34,15.40
2015,08,20,07,35,15.50
2015,08,20,07,36,15.60
2015,08,20,07,37,15.60
2015,08,20,07,38,15.60
2015,08,20,07,39,15.60
2015,08,20,07,40,15.70
2015,08,20,07,41,15.70
2015,08,20,07,42,15.70
2015,08,20,07,43,15.70
2015,08,20,07,44,15.70
2015,08,20,07,45,15.80
2015,08,20,07,46,15.80
2015,08,20,07,47,15.80
2015,08,20,07,48,15.80
2015,08,20,07,49,15.90
2015,08,20,07,50,15.90
2015,08,20,07,51,15.90
2015,08,20,07,52,15.90
2015,08,20,07,53,15.90
2015,08,20,07,54,16.00
2015,08,20,07,55,16.00
2015,08,20,07,56,16.10
2015,08,20,07,57,16.10
2015,08,20,07,58,16.20
2015,08,20,07,59,16.20
2015,08,20,08,00,16.30
2015,08,20,08,01,16.40
2015,08,20,08,02,16.40
2015,08,20,08,03,16.40
2015,08,20,08,04,16.50
2015,08,20,08,05,16.50
2015,08,20,08,06,16.60
2015,08,20,08,07,16.60
2015,08,20,08,08,16.70
2015,08,20,08,09,16.70
2015,08,20,08,10,16.80
2015,08,20,08,11,16.80
2015,08,20,08,12,16.90
2015,08,20,08,13,16.90
2015,08,20,08,14,16.90
2015,08,20,08,15,16.90
2015,08,20,08,16,16.90
2015,08,20,08,17,17.00
2015,08,20,08,18,17.00
2015,08,20,08,19,17.10
2015,08,20,08,20,17.10
2015,08,20,08,21,17.20
2015,08,20,08,22,17.30
2015,08,20,08,23,17.30
2015,08,20,08,24,17.30
2015,08,20,08,25,17.40
2015,08,20,08,26,17.50
2015,08,20,08,27,17.50
2015,08,20,08,28,17.50
2015,08,20,08,29,17.50
2015,08,20,08,30,17.50
2015,08,20,08,31,17.50
2015,08,20,08,32,17.50
2015,08,20,08,33,17.60
2015,08,20,08,34,17.60
2015,08,20,08,35,17.60
2015,08,20,08,36,17.60
2015,08,20,08,37,17.60
2015,08,20,08,38,17.60
2015,08,20,08,39,17.60
2015,08,20,08,40,17.60
2015,08,20,08,41,17.60
2015,08,20,08,42,17.70
2015,08,20,08,43,17.70
2015,08,20,08,44,17.80
2015,08,20,08,45,17.80
2015,08,20,08,46,17.80
2015,08,20,08,47,17.80
2015,08,20,08,48,17.80
2015,08,20,08,49,17.90
2015,08,20,08,50,17.90
2015,08,20,08,51,18.00
2015,08,20,08,52,18.00
2015,08,20,08,53,18.10
2015,08,20,08,54,18.10
2015,08,20,08,55,18.10
2015,08,20,08,56,18.10
2015,08,20,08,57,18.00
2015,08,20,08,58,17.90
2015,08,20,08,59,17.90
2015,08,20,09,00,17.80
2015,08,20,09,01,17.80
2015,08,20,09,02,17.70
2015,08,20,09,03,17.70
2015,08,20,09,04,17.70
2015,08,20,09,05,17.70
2015,08,20,09,06,17.70
2015,08,20,09,07,17.70
2015,08,20,09,08,17.70
2015,08,20,09,09,17.70
2015,08,20,09,10,17.70
2015,08,20,09,11,17.70
2015,08,20,09,12,17.80
2015,08,20,09,13,17.80
2015,08,20,09,14,17.80
2015,08,20,09,15,17.90
2015,08,20,09,16,17.90
2015,08,20,09,17,18.00
2015,08,20,09,18,18.20
2015,08,20,09,19,18.20
2015,08,20,09,20,18.30
2015,08,20,09,21,18.30
2015,08,20,09,22,18.30
2015,08,20,09,23,18.40
2015,08,20,09,24,18.50
2015,08,20,09,25,18.60
2015,08,20,09,26,18.70
2015,08,20,09,27,18.80
2015,08,20,09,28,18.90
2015,08,20,09,29,19.00
2015,08,20,09,30,19.10
2015,08,20,09,31,19.10
2015,08,20,09,32,19.10
2015,08,20,09,33,19.10
2015,08,20,09,34,19.10
2015,08,20,09,35,19.10
2015,08,20,09,36,19.10
2015,08,20,09,37,19.20
2015,08,20,09,38,19.20
2015,08,20,09,39,19.30
2015,08,20,09,40,19.30
2015,08,20,09,41,19.30
2015,08,20,09,42,19.30
2015,08,20,09,43,19.40
2015,08,20,09,44,19.40
2015,08,20,09,45,19.40
2015,08,20,09,46,19.40
2015,08,20,09,47,19.40
2015,08,20,09,48,19.40
2015,08,20,09,49,19.40
2015,08,20,09,50,19.40
2015,08,20,09,51,19.40
2015,08,20,09,52,19.40
2015,08,20,09,53,19.40
2015,08,20,09,54,19.40
2015,08,20,09,55,19.40
2015,08,20,09,56,19.40
2015,08,20,09,57,19.40
2015,08,20,09,58,19.40
2015,08,20,09,59,19.40
2015,08,20,10,00,19.40
2015,08,20,10,01,19.50
2015,08,20,10,02,19.50
2015,08,20,10,03,19.60
2015,08,20,10,04,19.70
2015,08,20,10,05,19.80
2015,08,20,10,06,19.80
2015,08,20,10,07,19.80
2015,08,20,10,08,19.80
2015,08,20,10,09,19.80
2015,08,20,10,10,19.80
2015,08,20,10,11,19.90
2015,08,20,10,12,19.90
2015,08,20,10,13,19.90
2015,08,20,10,14,19.90
2015,08,20,10,15,20.00
2015,08,20,10,16,20.00
2015,08,20,10,17,20.10
2015,08,20,10,18,20.10
2015,08,20,10,19,20.20
2015,08,20,10,20,20.20
2015,08,20,10,21,20.20
2015,08,20,10,22,20.30
2015,08,20,10,23,20.30
2015,08,20,10,24,20.30
2015,08,20,10,25,20.40
2015,08,20,10,26,20.40
2015,08,20,10,27,20.40
2015,08,20,10,28,20.50
2015,08,20,10,29,20.50
2015,08,20,10,30,20.60
2015,08,20,10,31,20.70
2015,08,20,10,32,20.80
2015,08,20,10,33,20.80
2015,08,20,10,34,20.90
2015,08,20,10,35,20.90
2015,08,20,10,36,21.00
2015,08,20,10,37,21.00
2015,08,20,10,38,21.10
2015,08,20,10,39,21.10
2015,08,20,10,40,21.20
2015,08,20,10,41,21.30
2015,08,20,10,42,21.30
2015,08,20,10,43,21.30
2015,08,20,10,44,21.30
2015,08,20,10,45,21.30
2015,08,20,10,46,21.30
2015,08,20,10,47,21.30
2015,08,20,10,48,21.30
2015,08,20,10,49,21.30
2015,08,20,10,50,21.20
2015,08,20,10,51,21.20
2015,08,20,10,52,21.30
2015,08,20,10,53,21.30
2015,08,20,10,54,21.40
2015,08,20,10,55,21.40
2015,08,20,10,56,21.40
2015,08,20,10,57,21.40
2015,08,20,10,58,21.40
2015,08,20,10,59,21.40
2015,08,20,11,00,21.40
2015,08,20,11,01,21.40
2015,08,20,11,02,21.40
2015,08,20,11,03,21.40
2015,08,20,11,04,21.30
2015,08,20,11,05,21.30
2015,08,20,11,06,21.30
2015,08,20,11,07,21.30
2015,08,20,11,08,21.40
2015,08,20,11,09,21.40
2015,08,20,11,10,21.50
2015,08,20,11,11,21.50
2015,08,20,11,12,21.50
2015,08,20,11,13,21.50
2015,08,20,11,14,21.40
2015,08,20,11,15,21.40
2015,08,20,11,16,21.40
2015,08,20,11,17,21.40
2015,08,20,11,18,21.40
2015,08,20,11,19,21.40
2015,08,20,11,20,21.50
2015,08,20,11,21,21.50
2015,08,20,11,22,21.60
2015,08,20,11,23,21.60
2015,08,20,11,24,21.70
2015,08,20,11,25,21.70
2015,08,20,11,26,21.70
2015,08,20,11,27,21.80
2015,08,20,11,28,21.80
2015,08,20,11,29,21.90
2015,08,20,11,30,21.90
2015,08,20,11,31,21.90
2015,08,20,11,32,21.90
2015,08,20,11,33,21.90
2015,08,20,11,34,21.80
2015,08,20,11,35,21.80
2015,08,20,11,36,21.80
2015,08,20,11,37,21.80
2015,08,20,11,38,21.70
2015,08,20,11,39,21.70
2015,08,20,11,40,21.70
2015,08,20,11,41,21.80
2015,08,20,11,42,21.80
2015,08,20,11,43,21.80
2015,08,20,11,44,21.80
2015,08,20,11,45,21.80
2015,08,20,11,46,21.90
2015,08,20,11,47,21.90
2015,08,20,11,48,21.90
2015,08,20,11,49,22.00
2015,08,20,11,50,22.00
2015,08,20,11,51,21.90
2015,08,20,11,52,21.90
2015,08,20,11,53,22.00
2015,08,20,11,54,21.90
2015,08,20,11,55,22.00
2015,08,20,11,56,22.00
2015,08,20,11,57,22.10
2015,08,20,11,58,22.20
2015,08,20,11,59,22.30
2015,08,20,12,00,22.40
2015,08,20,12,01,22.40
2015,08,20,12,02,22.40
2015,08,20,12,03,22.40
2015,08,20,12,04,22.40
2015,08,20,12,05,22.40
2015,08,20,12,06,22.40
2015,08,20,12,07,22.40
2015,08,20,12,08,22.50
2015,08,20,12,09,22.50
2015,08,20,12,10,22.60
2015,08,20,12,11,22.60
2015,08,20,12,12,22.70
2015,08,20,12,13,22.70
2015,08,20,12,14,22.70
2015,08,20,12,15,22.70
2015,08,20,12,16,22.60
2015,08,20,12,17,22.70
2015,08,20,12,18,22.70
2015,08,20,12,19,22.80
2015,08,20,12,20,22.90
2015,08,20,12,21,22.90
2015,08,20,12,22,23.00
2015,08,20,12,23,23.10
2015,08,20,12,24,23.10
2015,08,20,12,25,23.20
2015,08,20,12,26,23.30
2015,08,20,12,27,23.40
2015,08,20,12,28,23.40
2015,08,20,12,29,23.50
2015,08,20,12,30,23.50
2015,08,20,12,31,23.60
2015,08,20,12,32,23.50
2015,08,20,12,33,23.50
2015,08,20,12,34,23.50
2015,08,20,12,35,23.40
2015,08,20,12,36,23.40
2015,08,20,12,37,23.50
2015,08,20,12,38,23.60
2015,08,20,12,39,23.70
2015,08,20,12,40,23.70
2015,08,20,12,41,23.70
2015,08,20,12,42,23.70
2015,08,20,12,43,23.70
2015,08,20,12,44,23.70
2015,08,20,12,45,23.70
2015,08,20,12,46,23.70
2015,08,20,12,47,23.70
2015,08,20,12,48,23.70
2015,08,20,12,49,23.70
2015,08,20,12,50,23.70
2015,08,20,12,51,23.80
2015,08,20,12,52,23.80
2015,08,20,12,53,23.80
2015,08,20,12,54,23.80
2015,08,20,12,55,23.80
2015,08,20,12,56,23.80
2015,08,20,12,57,23.80
2015,08,20,12,58,23.70
2015,08,20,12,59,23.70
2015,08,20,13,00,23.60
2015,08,20,13,01,23.60
2015,08,20,13,02,23.60
2015,08,20,13,03,23.60
2015,08,20,13,04,23.60
2015,08,20,13,05,23.70
2015,08,20,13,06,23.70
2015,08,20,13,07,23.60
2015,08,20,13,08,23.60
2015,08,20,13,09,23.50
2015,08,20,13,10,23.50
2015,08,20,13,11,23.50
2015,08,20,13,12,23.50
2015,08,20,13,13,23.50
2015,08,20,13,14,23.50
2015,08,20,13,15,23.40
2015,08,20,13,16,23.30
2015,08,20,13,17,23.30
2015,08,20,13,18,23.40
2015,08,20,13,19,23.40
2015,08,20,13,20,23.40
2015,08,20,13,21,23.40
2015,08,20,13,22,23.40
2015,08,20,13,23,23.40
2015,08,20,13,24,23.40
2015,08,20,13,25,23.40
2015,08,20,13,26,23.50
2015,08,20,13,27,23.60
2015,08,20,13,28,23.70
2015,08,20,13,29,23.70
2015,08,20,13,30,23.70
2015,08,20,13,31,23.70
2015,08,20,13,32,23.60
2015,08,20,13,33,23.40
2015,08,20,13,34,23.30
2015,08,20,13,35,23.20
2015,08,20,13,36,23.20
2015,08,20,13,37,23.10
2015,08,20,13,38,23.00
2015,08,20,13,39,23.00
2015,08,20,13,40,23.00
2015,08,20,13,41,22.90
2015,08,20,13,42,22.90
2015,08,20,13,43,22.90
2015,08,20,13,44,22.90
2015,08,20,13,45,22.90
2015,08,20,13,46,22.90
2015,08,20,13,47,22.90
2015,08,20,13,48,22.90
2015,08,20,13,49,22.80
2015,08,20,13,50,22.80
2015,08,20,13,51,22.80
2015,08,20,13,52,22.80
2015,08,20,13,53,22.70
2015,08,20,13,54,22.70
2015,08,20,13,55,22.80
2015,08,20,13,56,22.90
2015,08,20,13,57,22.90
2015,08,20,13,58,22.80
2015,08,20,13,59,22.70
2015,08,20,14,00,22.50
2015,08,20,14,01,22.50
2015,08,20,14,02,22.50
2015,08,20,14,03,22.50
2015,08,20,14,04,22.50
2015,08,20,14,05,22.40
2015,08,20,14,06,22.40
2015,08,20,14,07,22.40
2015,08,20,14,08,22.40
2015,08,20,14,09,22.40
2015,08,20,14,10,22.50
2015,08,20,14,11,22.50
2015,08,20,14,12,22.60
2015,08,20,14,13,22.70
2015,08,20,14,14,22.70
2015,08,20,14,15,22.80
2015,08,20,14,16,22.80
2015,08,20,14,17,22.80
2015,08,20,14,18,22.80
2015,08,20,14,19,22.80
2015,08,20,14,20,22.80
2015,08,20,14,21,22.80
2015,08,20,14,22,22.80
2015,08,20,14,23,22.80
2015,08,20,14,24,22.80
2015,08,20,14,25,22.90
2015,08,20,14,26,22.90
2015,08,20,14,27,22.90
2015,08,20,14,28,22.80
2015,08,20,14,29,22.70
2015,08,20,14,30,22.60
2015,08,20,14,31,22.50
2015,08,20,14,32,22.40
2015,08,20,14,33,22.40
2015,08,20,14,34,22.30
2015,08,20,14,35,22.30
2015,08,20,14,36,22.30
2015,08,20,14,37,22.40
2015,08,20,14,38,22.40
2015,08,20,14,39,22.40
2015,08,20,14,40,22.50
2015,08,20,14,41,22.50
2015,08,20,14,42,22.40
2015,08,20,14,43,22.40
2015,08,20,14,44,22.30
2015,08,20,14,45,22.30
2015,08,20,14,46,22.20
2015,08,20,14,47,22.20
2015,08,20,14,48,22.20
2015,08,20,14,49,22.30
2015,08,20,14,50,22.30
2015,08,20,14,51,22.30
2015,08,20,14,52,22.40
2015,08,20,14,53,22.50
2015,08,20,14,54,22.50
2015,08,20,14,55,22.60
2015,08,20,14,56,22.70
2015,08,20,14,57,22.70
2015,08,20,14,58,22.80
2015,08,20,14,59,22.80
2015,08,20,15,00,23.00
2015,08,20,15,01,23.00
2015,08,20,15,02,23.00
2015,08,20,15,03,23.10
2015,08,20,15,04,23.20
2015,08,20,15,05,23.30
2015,08,20,15,06,23.30
2015,08,20,15,07,23.30
2015,08,20,15,08,23.20
2015,08,20,15,09,23.20
2015,08,20,15,10,23.20
2015,08,20,15,11,23.20
2015,08,20,15,12,23.30
2015,08,20,15,13,23.30
2015,08,20,15,14,23.30
2015,08,20,15,15,23.30
2015,08,20,15,16,23.20
2015,08,20,15,17,23.10
2015,08,20,15,18,22.90
2015,08,20,15,19,22.80
2015,08,20,15,20,22.80
2015,08,20,15,21,22.80
2015,08,20,15,22,22.80
2015,08,20,15,23,22.80
2015,08,20,15,24,22.90
2015,08,20,15,25,22.90
2015,08,20,15,26,23.00
2015,08,20,15,27,23.10
2015,08,20,15,28,23.10
2015,08,20,15,29,23.10
2015,08,20,15,30,23.10
2015,08,20,15,31,23.20
2015,08,20,15,32,23.20
2015,08,20,15,33,23.20
2015,08,20,15,34,23.20
2015,08,20,15,35,23.30
2015,08,20,15,36,23.40
2015,08,20,15,37,23.30
2015,08,20,15,38,23.30
2015,08,20,15,39,23.20
2015,08,20,15,40,23.10
2015,08,20,15,41,23.00
2015,08,20,15,42,23.00
2015,08,20,15,43,23.00
2015,08,20,15,44,23.00
2015,08,20,15,45,23.10
2015,08,20,15,46,23.20
2015,08,20,15,47,23.20
2015,08,20,15,48,23.20
2015,08,20,15,49,23.20
2015,08,20,15,50,23.30
2015,08,20,15,51,23.30
2015,08,20,15,52,23.30
2015,08,20,15,53,23.30
2015,08,20,15,54,23.20
2015,08,20,15,55,23.10
2015,08,20,15,56,23.10
2015,08,20,15,57,23.10
2015,08,20,15,58,23.10
2015,08,20,15,59,23.10
2015,08,20,16,00,23.10
2015,08,20,16,01,23.10
2015,08,20,16,02,23.10
2015,08,20,16,03,23.10
2015,08,20,16,04,23.10
2015,08,20,16,05,23.10
2015,08,20,16,06,23.00
2015,08,20,16,07,23.00
2015,08,20,16,08,23.00
2015,08,20,16,09,23.00
2015,08,20,16,10,23.00
2015,08,20,16,11,23.00
2015,08,20,16,12,23.00
2015,08,20,16,13,23.00
2015,08,20,16,14,23.10
2015,08,20,16,15,23.10
2015,08,20,16,16,23.10
2015,08,20,16,17,23.20
2015,08,20,16,18,23.30
2015,08,20,16,19,23.40
2015,08,20,16,20,23.40
2015,08,20,16,21,23.40
2015,08,20,16,22,23.40
2015,08,20,16,23,23.30
2015,08,20,16,24,23.20
2015,08,20,16,25,23.10
2015,08,20,16,26,22.90
2015,08,20,16,27,22.80
2015,08,20,16,28,22.70
2015,08,20,16,29,22.70
2015,08,20,16,30,22.60
2015,08,20,16,31,22.50
2015,08,20,16,32,22.40
2015,08,20,16,33,22.40
2015,08,20,16,34,22.30
2015,08,20,16,35,22.20
2015,08,20,16,36,22.00
2015,08,20,16,37,22.00
2015,08,20,16,38,22.00
2015,08,20,16,39,21.90
2015,08,20,16,40,21.70
2015,08,20,16,41,21.60
2015,08,20,16,42,21.50
2015,08,20,16,43,21.50
2015,08,20,16,44,21.60
2015,08,20,16,45,21.70
2015,08,20,16,46,21.70
2015,08,20,16,47,21.70
2015,08,20,16,48,21.70
2015,08,20,16,49,21.70
2015,08,20,16,50,21.70
2015,08,20,16,51,21.60
2015,08,20,16,52,21.60
2015,08,20,16,53,21.60
2015,08,20,16,54,21.70
2015,08,20,16,55,21.70
2015,08,20,16,56,21.80
2015,08,20,16,57,21.80
2015,08,20,16,58,21.80
2015,08,20,16,59,21.80
2015,08,20,17,00,21.80
2015,08,20,17,01,21.70
2015,08,20,17,02,21.80
2015,08,20,17,03,21.70
2015,08,20,17,04,21.70
2015,08,20,17,05,21.70
2015,08,20,17,06,21.70
2015,08,20,17,07,21.60
2015,08,20,17,08,21.60
2015,08,20,17,09,21.40
2015,08,20,17,10,21.40
2015,08,20,17,11,21.30
2015,08,20,17,12,21.30
2015,08,20,17,13,21.30
2015,08,20,17,14,21.30
2015,08,20,17,15,21.20
2015,08,20,17,16,21.20
2015,08,20,17,17,21.20
2015,08,20,17,18,21.20
2015,08,20,17,19,21.20